Weather History for Wheeling, WV

Change the Weather History Date:

Friday, March 7, 2014

  Actual Average Record
Temperature  
Mean Temperature 39 °F 37 °F  
Max Temperature 54 °F 46 °F 74 °F (1983)
Min Temperature 24 °F 28 °F 16 °F (1949)
Degree Days  
Heating Degree Days 26 28  
Month to date heating degree days 273 204  
Since 1 July heating degree days 4735 4371  
Cooling Degree Days 0    
Month to date cooling degree days 0  
Year to date cooling degree days 0  
Moisture  
Dew Point 26 °F    
Average Humidity 58    
Maximum Humidity 75    
Minimum Humidity 41    
Precipitation  
Precipitation 0.00 in 0.09 in 1.29 in (1989)
Month to date precipitation 0.17 0.55  
Sea Level Pressure  
Sea Level Pressure 30.06 in    
Wind  
Wind Speed 5 mph (SE)    
Max Wind Speed 12 mph    
Max Gust Speed 14 mph    
Visibility 10 miles    
Events      
T = Trace of Precipitation, MM = Missing Value Source: NWS Daily Summary

Daily Weather History Graph

Daily Weather History Graph

Search for Another Location

Airport:

Trip Planner

Search our weather history database for the weather conditions in past years. The results will help you decide how hot, cold, wet, or windy it might be!

Date:

Astronomy

Mar. 07, 2014 Rise Set
Actual Time 6:46 AM EST 6:20 PM EST
Civil Twilight 6:19 AM EST 6:48 PM EST
Nautical Twilight 5:48 AM EST 7:19 PM EST
Astronomical Twilight 5:16 AM EST 7:51 PM EST
Moon 10:38 AM EST (3/7) 12:24 AM EST (3/7)
Length of Visible Light 12h 28m
Length of Day
11h 34m
Waxing Crescent, 42% of the Moon is Illuminated
Mar 7
Waxing Crescent
Mar 8
First Quarter
Mar 16
Full
Mar 23
Last Quarter
Mar 30
New

Hourly Weather History & Observations

Time (EST) Temp. Windchill Dew Point Humidity Pressure Visibility Wind Dir Wind Speed Gust Speed Precip Events Conditions
12:53 AM 27.0 °F 17.3 °F 16.0 °F 63% 30.17 in 10.0 mi East 10.4 mph - N/A   Clear
1:53 AM 27.0 °F 18.7 °F 16.0 °F 63% 30.17 in 10.0 mi ESE 8.1 mph - N/A   Clear
2:53 AM 26.1 °F 18.4 °F 16.0 °F 66% 30.15 in 10.0 mi East 6.9 mph - N/A   Clear
3:53 AM 25.0 °F 16.3 °F 16.0 °F 69% 30.15 in 10.0 mi East 8.1 mph - N/A   Clear
4:53 AM 26.1 °F 18.4 °F 17.1 °F 69% 30.14 in 10.0 mi East 6.9 mph - N/A   Clear
5:53 AM 24.1 °F 14.4 °F 17.1 °F 75% 30.13 in 10.0 mi East 9.2 mph - N/A   Clear
6:53 AM 25.0 °F 17.1 °F 18.0 °F 75% 30.15 in 10.0 mi ESE 6.9 mph - N/A   Clear
7:53 AM 28.0 °F 22.8 °F 21.0 °F 75% 30.14 in 10.0 mi East 4.6 mph - N/A   Clear
8:53 AM 32.0 °F 25.6 °F 21.9 °F 66% 30.13 in 10.0 mi East 6.9 mph - N/A   Clear
9:53 AM 37.9 °F 34.4 °F 26.1 °F 62% 30.12 in 10.0 mi East 4.6 mph - N/A   Clear
10:53 AM 43.0 °F 41.3 °F 28.9 °F 58% 30.11 in 10.0 mi SSE 3.5 mph - N/A   Clear
11:53 AM 46.0 °F 43.9 °F 30.0 °F 54% 30.09 in 10.0 mi SSE 4.6 mph - N/A   Clear
12:53 PM 48.0 °F - 30.9 °F 52% 30.05 in 10.0 mi Variable 3.5 mph - N/A   Clear
1:53 PM 52.0 °F - 32.0 °F 47% 30.01 in 10.0 mi South 9.2 mph - N/A   Clear
2:53 PM 53.1 °F - 32.0 °F 45% 29.99 in 10.0 mi West 6.9 mph - N/A   Clear
3:53 PM 53.1 °F - 32.0 °F 45% 29.99 in 10.0 mi Calm Calm - N/A   Clear
4:53 PM 53.1 °F - 30.9 °F 43% 29.97 in 10.0 mi West 5.8 mph - N/A   Clear
5:53 PM 52.0 °F - 30.9 °F 45% 29.97 in 10.0 mi SW 3.5 mph - N/A   Clear
6:53 PM 51.1 °F - 30.9 °F 46% 29.98 in 10.0 mi Calm Calm - N/A   Clear
7:53 PM 44.1 °F 41.5 °F 30.0 °F 58% 29.97 in 10.0 mi SE 4.6 mph - N/A   Clear
8:53 PM 45.0 °F 42.6 °F 30.9 °F 58% 29.97 in 10.0 mi SSW 4.6 mph - N/A   Clear
9:53 PM 44.1 °F 42.5 °F 30.0 °F 58% 29.97 in 10.0 mi SSW 3.5 mph - N/A   Clear
10:53 PM 41.0 °F 38.0 °F 30.9 °F 67% 29.96 in 10.0 mi South 4.6 mph - N/A   Clear
11:53 PM 39.0 °F - 30.0 °F 70% 29.96 in 10.0 mi Calm Calm - N/A   Clear